Regional Weather Roundup
Issued by NWS Albany, NY

Home | Current Version | Previous Version | Graphics & Text | Print | Product List | Glossary On
Versions: 1 2 3 4 5 6 7 8 9 10 11 12 13 14 15 16 17 18 19 20 21 22 23 24 25 26 27 28 29 30 31 32 33 34 35 36 37 38 39 40 41 42 43 44 45 46 47 48 49 50
139
ASUS41 KALY 242310
RWRALY

NEW YORK STATE HOURLY WEATHER ROUNDUP
NATIONAL WEATHER SERVICE ALBANY NY
600 PM EST SAT FEB 24 2018

NOTE: "FAIR" INDICATES FEW OR NO CLOUDS BELOW 12,000 FEET WITH NO
SIGNIFICANT WEATHER AND/OR NO OBSTRUCTIONS TO VISIBILITY.

NYZ032-033-038>043-046>054-057>066-NYZ062>081-082-084-250000-
EAST


CITY           SKY/WX    TMP DP  RH WIND       PRES   REMARKS
ALBANY         CLOUDY    42  29  59 N6        30.21R
GLENS FALLS    FAIR      38  28  67 N6        30.21R WCI  33
POUGHKEEPSIE   LGT RAIN  42  39  89 N7        30.17R FOG
MONTGOMERY     LGT RAIN  43  41  93 N3        30.15F
WHITE PLAINS   LGT RAIN  44  43  96 NW6       30.16F
ISLIP          LGT RAIN  46  45  96 N5        30.17F
NEW YORK CITY  LGT RAIN  47  42  83 NE5       30.17F
CENTRAL PARK   LGT RAIN  46  43  89 CALM      30.20F
$$

NYZ005>009-017-018-044>046-055-056-250000-
CENTRAL


CITY           SKY/WX    TMP DP  RH WIND       PRES   REMARKS
FULTON         FAIR      36  28  73 CALM      30.20S
SYRACUSE       MOCLDY    38  29  70 NE3       30.18F
ROME           FAIR      38  28  67 NW3       30.19F
ELMIRA         CLOUDY    39  33  79 NE3       30.16R
BINGHAMTON     CLOUDY    35  31  85 E3        30.11F
MONTICELLO     LGT RAIN  37  36  96 N5        30.15F FOG     WCI  33
$$

NYZ026>034-041>043-087-250000-
NORTH


CITY           SKY/WX    TMP DP  RH WIND       PRES   REMARKS
WATERTOWN      CLOUDY    37  31  78 NE7       30.21S WCI  32
FORT DRUM      NOT AVBL
OGDENSBURG     FAIR      32  25  75 CALM      30.26R
MASSENA        MOCLDY    35  25  66 N3        30.27S
SARANAC LAKE   FAIR      31  25  78 CALM      30.16S
PLATTSBURGH    FAIR      34  25  69 N10       30.24R WCI  26
$$

NYZ001>004-010>016-019>021-085-250000-
WEST


CITY           SKY/WX    TMP DP  RH WIND       PRES   REMARKS
NIAGARA FALLS  FAIR      37  28  70 E7        30.15S WCI  32
BUFFALO        CLOUDY    37  30  75 E9        30.15S WCI  30
DUNKIRK        CLOUDY    36  32  85 NE8       30.13R WCI  30
JAMESTOWN        N/A    N/A N/A N/A MISG        N/A
WELLSVILLE     CLOUDY    39  36  89 E7        30.10S WCI  34
ROCHESTER      MOCLDY    38  28  67 E6        30.19R WCI  33
PENN YAN       CLOUDY    37  28  70 NE5       30.17R WCI  33
$$

             KEY
       WCI = WIND CHILL INDEX
       VSB = VISIBILITY
       HX  = HEAT INDEX
$$




USA.gov is the U.S. government's official web portal to all federal, state and local government web resources and services.